| time (UTC) | temp C | wind direction | speed KPH | gust KPH | rain 1hr cm | rain 24hr cm | rain mn cm | humidity % | barometer mb |
| 20260510142638 | 11 | 278 | 3.2 | 6.4 | 0.00 | 0.00 | 0.00 | 93 | 1012.7 |
| 20260510142135 | 10 | 301 | 0.0 | 1.6 | 0.00 | 0.00 | 0.00 | 93 | 1012.6 |
| 20260510141631 | 11 | 282 | 3.2 | 3.2 | 0.00 | 0.00 | 0.00 | 93 | 1012.8 |
| 20260510141130 | 11 | 112 | 1.6 | 3.2 | 0.00 | 0.00 | 0.00 | 93 | 1012.7 |
| 20260510140626 | 11 | 216 | 3.2 | 9.7 | 0.00 | 0.00 | 0.00 | 92 | 1012.5 |
| 20260510140125 | 11 | 300 | 3.2 | 4.8 | 0.00 | 0.00 | 0.00 | 92 | 1012.4 |
| 20260510135621 | 12 | 157 | 0.0 | 1.6 | 0.00 | 0.00 | 0.00 | 94 | 1012.3 |
| 20260510135117 | 12 | 245 | 0.0 | 1.6 | 0.00 | 0.00 | 0.00 | 96 | 1012.1 |
| 20260510134614 | 11 | 248 | 0.0 | 1.6 | 0.00 | 0.00 | 0.00 | 97 | 1011.9 |
| 20260510134111 | 11 | 248 | 0.0 | 0.0 | 0.00 | 0.00 | 0.00 | 98 | 1012.1 |
| 20260510133608 | 11 | 248 | 1.6 | 1.6 | 0.00 | 0.00 | 0.00 | 98 | 1011.9 |
| 20260510133103 | 11 | 248 | 0.0 | 0.0 | 0.00 | 0.00 | 0.00 | 98 | 1011.9 |
| 20260510132600 | 11 | 248 | 0.0 | 0.0 | 0.00 | 0.00 | 0.00 | 98 | 1012.0 |
| 20260510132057 | 11 | 248 | 0.0 | 0.0 | 0.00 | 0.00 | 0.00 | 98 | 1012.0 |
| 20260510131555 | 11 | 248 | 0.0 | 1.6 | 0.00 | 0.00 | 0.00 | 99 | 1012.5 |
| 20260510131052 | 11 | 248 | 0.0 | 0.0 | 0.00 | 0.00 | 0.00 | 99 | 1011.6 |
| 20260510130548 | 11 | 248 | 0.0 | 0.0 | 0.00 | 0.00 | 0.00 | 99 | 1011.7 |
| 20260510130046 | 11 | 248 | 0.0 | 0.0 | 0.00 | 0.00 | 0.00 | 99 | 1011.9 |
| 20260510125542 | 11 | 248 | 0.0 | 0.0 | 0.00 | 0.00 | 0.00 | 99 | 1011.7 |
| 20260510125038 | 11 | 248 | 0.0 | 0.0 | 0.00 | 0.00 | 0.00 | 99 | 1011.6 |
| 20260510124535 | 11 | 248 | 0.0 | 0.0 | 0.00 | 0.00 | 0.00 | 99 | 1011.4 |
| 20260510124032 | 10 | 248 | 0.0 | 0.0 | 0.00 | 0.00 | 0.00 | 99 | 1011.3 |
| 20260510123527 | 10 | 248 | 0.0 | 0.0 | 0.00 | 0.00 | 0.00 | 99 | 1011.3 |
| 20260510123024 | 10 | 248 | 0.0 | 0.0 | 0.00 | 0.00 | 0.00 | 99 | 1011.1 |
| 20260510122519 | 10 | 248 | 0.0 | 0.0 | 0.00 | 0.00 | 0.00 | 99 | 1011.2 |
| 20260510122015 | 10 | 248 | 0.0 | 0.0 | 0.00 | 0.00 | 0.00 | 99 | 1011.3 |
| 20260510121513 | 10 | 248 | 0.0 | 0.0 | 0.00 | 0.00 | 0.00 | 99 | 1011.3 |
| 20260510121010 | 10 | 248 | 0.0 | 0.0 | 0.00 | 0.00 | 0.00 | 99 | 1011.3 |
| 20260510120508 | 10 | 248 | 0.0 | 0.0 | 0.00 | 0.00 | 0.00 | 99 | 1011.4 |
| 20260510120003 | 10 | 248 | 1.6 | 1.6 | 0.00 | 0.00 | 0.00 | 99 | 1011.3 |
| 20260510115501 | 10 | 248 | 1.6 | 1.6 | 0.00 | 0.00 | 0.00 | 99 | 1011.3 |
| 20260510114956 | 10 | 248 | 1.6 | 1.6 | 0.00 | 0.00 | 0.00 | 99 | 1011.1 |
| 20260510114453 | 10 | 248 | 0.0 | 0.0 | 0.00 | 0.00 | 0.00 | 99 | 1010.9 |
| 20260510113949 | 10 | 248 | 0.0 | 0.0 | 0.00 | 0.00 | 0.00 | 99 | 1010.7 |
| 20260510113444 | 10 | 248 | 0.0 | 0.0 | 0.00 | 0.00 | 0.00 | 99 | 1010.7 |
| 20260510112942 | 10 | 248 | 0.0 | 0.0 | 0.00 | 0.00 | 0.00 | 99 | 1010.6 |
| 20260510112439 | 10 | 248 | 0.0 | 1.6 | 0.00 | 0.00 | 0.00 | 99 | 1011.0 |
| 20260510111935 | 9 | 248 | 0.0 | 0.0 | 0.00 | 0.00 | 0.00 | 99 | 1010.8 |
| 20260510111431 | 9 | 248 | 0.0 | 0.0 | 0.00 | 0.00 | 0.00 | 99 | 1010.8 |
| 20260510110927 | 9 | 248 | 0.0 | 0.0 | 0.00 | 0.00 | 0.00 | 99 | 1010.9 |
| 20260510110424 | 9 | 248 | 1.6 | 3.2 | 0.00 | 0.00 | 0.00 | 99 | 1010.8 |
| 20260510105920 | 9 | 268 | 0.0 | 0.0 | 0.00 | 0.00 | 0.00 | 99 | 1010.6 |
| 20260510105415 | 9 | 268 | 0.0 | 1.6 | 0.00 | 0.00 | 0.00 | 99 | 1010.5 |
| 20260510104910 | 9 | 296 | 0.0 | 0.0 | 0.00 | 0.00 | 0.00 | 99 | 1010.7 |
| 20260510104408 | 9 | 258 | 0.0 | 0.0 | 0.00 | 0.00 | 0.00 | 99 | 1010.1 |
| 20260510103904 | 9 | 259 | 0.0 | 0.0 | 0.00 | 0.00 | 0.00 | 99 | 1010.3 |
| 20260510103401 | 8 | 269 | 0.0 | 0.0 | 0.00 | 0.00 | 0.00 | 99 | 1010.4 |
| 20260510102856 | 8 | 271 | 1.6 | 1.6 | 0.00 | 0.00 | 0.00 | 99 | 1010.3 |
| 20260510102352 | 8 | 271 | 0.0 | 0.0 | 0.00 | 0.00 | 0.00 | 99 | 1010.3 |
| 20260510101850 | 8 | 271 | 0.0 | 1.6 | 0.00 | 0.00 | 0.00 | 99 | 1010.3 |
| 20260510101348 | 8 | 271 | 0.0 | 1.6 | 0.00 | 0.00 | 0.00 | 99 | 1010.1 |
| 20260510100844 | 8 | 271 | 0.0 | 0.0 | 0.00 | 0.00 | 0.00 | 99 | 1009.9 |
| 20260510100342 | 8 | 271 | 0.0 | 0.0 | 0.00 | 0.00 | 0.00 | 99 | 1010.1 |
| 20260510095838 | 8 | 271 | 0.0 | 0.0 | 0.00 | 0.00 | 0.00 | 99 | 1009.9 |
| 20260510095333 | 8 | 271 | 0.0 | 0.0 | 0.00 | 0.00 | 0.00 | 99 | 1009.8 |
| 20260510094832 | 8 | 271 | 0.0 | 0.0 | 0.00 | 0.00 | 0.00 | 99 | 1009.5 |
| 20260510094327 | 8 | 271 | 0.0 | 0.0 | 0.00 | 0.00 | 0.00 | 99 | 1009.5 |
| 20260510093824 | 8 | 271 | 0.0 | 0.0 | 0.00 | 0.00 | 0.00 | 99 | 1009.5 |
| 20260510093320 | 8 | 271 | 0.0 | 0.0 | 0.00 | 0.00 | 0.00 | 99 | 1009.5 |
| 20260510092816 | 8 | 271 | 0.0 | 0.0 | 0.00 | 0.00 | 0.00 | 99 | 1009.6 |
| 20260510092312 | 8 | 271 | 0.0 | 0.0 | 0.00 | 0.00 | 0.00 | 99 | 1009.4 |
| 20260510091808 | 8 | 271 | 0.0 | 0.0 | 0.00 | 0.00 | 0.00 | 99 | 1009.4 |
| 20260510091306 | 8 | 271 | 0.0 | 0.0 | 0.00 | 0.00 | 0.00 | 99 | 1009.3 |
| 20260510090802 | 8 | 271 | 0.0 | 0.0 | 0.00 | 0.00 | 0.00 | 99 | 1009.2 |
| 20260510090259 | 8 | 271 | 0.0 | 0.0 | 0.00 | 0.00 | 0.00 | 99 | 1009.1 |
| 20260510085755 | 8 | 271 | 0.0 | 0.0 | 0.00 | 0.00 | 0.00 | 99 | 1009.5 |
| 20260510085254 | 8 | 271 | 0.0 | 0.0 | 0.00 | 0.00 | 0.00 | 99 | 1009.2 |
| 20260510084751 | 8 | 271 | 0.0 | 0.0 | 0.00 | 0.00 | 0.00 | 99 | 1009.3 |
| 20260510084248 | 8 | 271 | 0.0 | 0.0 | 0.00 | 0.00 | 0.00 | 99 | 1009.3 |
| 20260510083745 | 8 | 271 | 0.0 | 0.0 | 0.00 | 0.00 | 0.00 | 99 | 1009.2 |
| 20260510083242 | 8 | 271 | 0.0 | 0.0 | 0.00 | 0.00 | 0.00 | 99 | 1009.0 |
| 20260510082737 | 8 | 271 | 0.0 | 0.0 | 0.00 | 0.00 | 0.00 | 99 | 1009.3 |
| 20260510082234 | 8 | 271 | 0.0 | 0.0 | 0.00 | 0.00 | 0.00 | 99 | 1009.2 |
| 20260510081733 | 10 | 271 | 0.0 | 0.0 | 0.00 | 0.00 | 0.00 | 99 | 1009.3 |
| 20260510081230 | 10 | 271 | 0.0 | 0.0 | 0.00 | 0.00 | 0.00 | 99 | 1009.4 |
| 20260510080724 | 10 | 271 | 0.0 | 0.0 | 0.00 | 0.00 | 0.00 | 99 | 1009.1 |
| 20260510080221 | 10 | 271 | 0.0 | 0.0 | 0.00 | 0.00 | 0.00 | 99 | 1009.5 |
| 20260510075717 | 10 | 271 | 0.0 | 0.0 | 0.00 | 0.00 | 0.00 | 99 | 1009.4 |
| 20260510075215 | 10 | 271 | 0.0 | 0.0 | 0.00 | 0.00 | 0.00 | 99 | 1009.4 |
| 20260510074712 | 10 | 271 | 0.0 | 0.0 | 0.00 | 0.00 | 0.00 | 99 | 1009.4 |
| 20260510074209 | 10 | 271 | 0.0 | 0.0 | 0.00 | 0.00 | 0.00 | 99 | 1009.4 |
| 20260510073705 | 10 | 271 | 0.0 | 0.0 | 0.00 | 0.00 | 0.00 | 99 | 1009.0 |
| 20260510073201 | 10 | 271 | 0.0 | 0.0 | 0.00 | 0.00 | 0.00 | 99 | 1009.5 |
| 20260510072657 | 10 | 271 | 0.0 | 0.0 | 0.00 | 0.00 | 0.00 | 99 | 1009.1 |
| 20260510072154 | 10 | 271 | 0.0 | 1.6 | 0.00 | 0.00 | 0.00 | 99 | 1008.7 |
| 20260510071650 | 10 | 271 | 1.6 | 1.6 | 0.00 | 0.00 | 0.00 | 99 | 1008.5 |
| 20260510071147 | 10 | 271 | 0.0 | 0.0 | 0.00 | 0.00 | 0.00 | 99 | 1009.1 |
| 20260510070645 | 10 | 271 | 0.0 | 1.6 | 0.00 | 0.00 | 0.00 | 98 | 1008.7 |
| 20260510070142 | 10 | 271 | 0.0 | 0.0 | 0.00 | 0.00 | 0.00 | 98 | 1009.0 |
| 20260510065637 | 10 | 272 | 0.0 | 0.0 | 0.00 | 0.00 | 0.00 | 98 | 1009.2 |
| 20260510065133 | 10 | 272 | 0.0 | 0.0 | 0.00 | 0.00 | 0.00 | 98 | 1009.3 |
| 20260510064630 | 10 | 272 | 0.0 | 0.0 | 0.00 | 0.00 | 0.00 | 98 | 1009.5 |
| 20260510064127 | 10 | 272 | 0.0 | 0.0 | 0.00 | 0.00 | 0.00 | 98 | 1009.6 |
| 20260510063624 | 10 | 271 | 0.0 | 0.0 | 0.00 | 0.00 | 0.00 | 98 | 1009.6 |
| 20260510063121 | 10 | 271 | 0.0 | 0.0 | 0.00 | 0.00 | 0.00 | 98 | 1009.7 |
| 20260510062616 | 10 | 271 | 0.0 | 0.0 | 0.00 | 0.00 | 0.00 | 98 | 1009.7 |
| 20260510062112 | 10 | 271 | 0.0 | 0.0 | 0.00 | 0.00 | 0.00 | 98 | 1009.9 |
| 20260510061608 | 10 | 271 | 0.0 | 0.0 | 0.00 | 0.00 | 0.00 | 98 | 1009.9 |
| 20260510061106 | 10 | 271 | 0.0 | 0.0 | 0.00 | 0.00 | 0.00 | 98 | 1010.0 |
| 20260510060601 | 10 | 271 | 0.0 | 0.0 | 0.00 | 0.00 | 0.00 | 98 | 1010.3 |
| 20260510060058 | 10 | 271 | 0.0 | 0.0 | 0.00 | 0.00 | 0.00 | 98 | 1010.2 |
| 20260510055554 | 10 | 271 | 0.0 | 0.0 | 0.00 | 0.00 | 0.00 | 98 | 1010.4 |
| 20260510055053 | 10 | 271 | 0.0 | 0.0 | 0.00 | 0.00 | 0.00 | 98 | 1010.1 |
| 20260510054549 | 10 | 271 | 0.0 | 0.0 | 0.00 | 0.00 | 0.00 | 98 | 1010.1 |
| 20260510054043 | 10 | 271 | 0.0 | 0.0 | 0.00 | 0.00 | 0.00 | 98 | 1009.8 |
| 20260510053538 | 10 | 271 | 0.0 | 0.0 | 0.00 | 0.00 | 0.00 | 98 | 1009.7 |
| 20260510053035 | 10 | 271 | 0.0 | 0.0 | 0.00 | 0.00 | 0.00 | 98 | 1009.4 |
| 20260510052531 | 10 | 271 | 0.0 | 0.0 | 0.00 | 0.00 | 0.00 | 98 | 1009.5 |
| 20260510052027 | 10 | 271 | 0.0 | 0.0 | 0.00 | 0.00 | 0.00 | 98 | 1009.4 |
| 20260510051523 | 10 | 273 | 0.0 | 0.0 | 0.00 | 0.00 | 0.00 | 98 | 1009.3 |
| 20260510051020 | 10 | 273 | 0.0 | 0.0 | 0.00 | 0.00 | 0.00 | 98 | 1009.4 |
| 20260510050517 | 10 | 273 | 0.0 | 0.0 | 0.00 | 0.00 | 0.00 | 98 | 1009.2 |
| 20260510050014 | 10 | 273 | 0.0 | 0.0 | 0.00 | 0.00 | 0.00 | 97 | 1009.2 |
| 20260510045511 | 10 | 272 | 0.0 | 0.0 | 0.00 | 0.00 | 0.00 | 97 | 1009.1 |
| 20260510045007 | 10 | 275 | 0.0 | 0.0 | 0.00 | 0.00 | 0.00 | 97 | 1009.3 |
| 20260510044504 | 10 | 275 | 0.0 | 0.0 | 0.00 | 0.00 | 0.00 | 97 | 1009.1 |
| 20260510044001 | 10 | 275 | 0.0 | 1.6 | 0.00 | 0.00 | 0.00 | 97 | 1009.3 |
| 20260510043456 | 10 | 278 | 0.0 | 0.0 | 0.00 | 0.00 | 0.00 | 97 | 1009.2 |
| 20260510042955 | 10 | 279 | 0.0 | 0.0 | 0.00 | 0.00 | 0.00 | 97 | 1009.1 |
| 20260510042451 | 10 | 279 | 0.0 | 0.0 | 0.00 | 0.00 | 0.00 | 97 | 1009.2 |
| 20260510041947 | 10 | 279 | 1.6 | 1.6 | 0.00 | 0.00 | 0.00 | 97 | 1009.4 |
| 20260510041444 | 10 | 294 | 0.0 | 1.6 | 0.00 | 0.00 | 0.00 | 97 | 1009.3 |
| 20260510040942 | 10 | 228 | 0.0 | 0.0 | 0.00 | 0.00 | 0.00 | 97 | 1009.3 |
| 20260510040438 | 10 | 228 | 0.0 | 1.6 | 0.00 | 0.00 | 0.00 | 97 | 1009.3 |
| 20260510035934 | 10 | 228 | 1.6 | 1.6 | 0.00 | 0.00 | 0.00 | 97 | 1009.4 |
| 20260510035431 | 10 | 228 | 0.0 | 1.6 | 0.00 | 0.00 | 0.00 | 97 | 1009.4 |
| 20260510034930 | 10 | 280 | 0.0 | 1.6 | 0.00 | 0.00 | 0.00 | 97 | 1009.5 |
| 20260510034430 | 10 | 321 | 0.0 | 0.0 | 0.00 | 0.00 | 0.00 | 97 | 1009.3 |
| 20260510033925 | 10 | 308 | 0.0 | 0.0 | 0.00 | 0.00 | 0.00 | 97 | 1009.0 |
| 20260510033422 | 10 | 132 | 0.0 | 1.6 | 0.00 | 0.00 | 0.00 | 97 | 1009.1 |
| 20260510032918 | 10 | 226 | 1.6 | 3.2 | 0.00 | 0.00 | 0.00 | 97 | 1009.1 |
| 20260510032415 | 10 | 215 | 1.6 | 3.2 | 0.00 | 0.00 | 0.00 | 97 | 1009.3 |
| 20260510031911 | 10 | 222 | 1.6 | 1.6 | 0.00 | 0.00 | 0.00 | 97 | 1009.4 |
| 20260510031406 | 10 | 188 | 1.6 | 4.8 | 0.00 | 0.00 | 0.00 | 97 | 1009.1 |
| 20260510030907 | 10 | 258 | 0.0 | 4.8 | 0.00 | 0.00 | 0.00 | 97 | 1009.3 |
| 20260510030403 | 10 | 247 | 0.0 | 1.6 | 0.00 | 0.00 | 0.00 | 97 | 1009.0 |
| 20260510025901 | 10 | 249 | 1.6 | 3.2 | 0.00 | 0.00 | 0.00 | 97 | 1009.2 |
| 20260510025358 | 10 | 301 | 1.6 | 1.6 | 0.00 | 0.00 | 0.00 | 97 | 1009.1 |
| 20260510024855 | 10 | 224 | 0.0 | 1.6 | 0.00 | 0.00 | 0.00 | 97 | 1009.1 |
| 20260510024352 | 10 | 326 | 0.0 | 1.6 | 0.00 | 0.00 | 0.00 | 96 | 1009.3 |
| 20260510023848 | 10 | 290 | 1.6 | 4.8 | 0.00 | 0.00 | 0.00 | 96 | 1009.1 |
| 20260510023344 | 10 | 271 | 0.0 | 1.6 | 0.00 | 0.00 | 0.00 | 97 | 1009.3 |
| 20260510022842 | 10 | 256 | 0.0 | 0.0 | 0.00 | 0.00 | 0.00 | 96 | 1009.1 |
| 20260510022341 | 10 | 217 | 3.2 | 3.2 | 0.00 | 0.00 | 0.00 | 96 | 1009.3 |
| 20260510021840 | 10 | 318 | 1.6 | 3.2 | 0.00 | 0.00 | 0.00 | 97 | 1009.4 |
| 20260510021338 | 10 | 215 | 3.2 | 3.2 | 0.00 | 0.00 | 0.00 | 97 | 1009.4 |
| 20260510020834 | 10 | 276 | 0.0 | 1.6 | 0.00 | 0.00 | 0.00 | 97 | 1009.4 |
| 20260510020334 | 10 | 191 | 0.0 | 0.0 | 0.00 | 0.00 | 0.00 | 97 | 1009.0 |
| 20260510015830 | 10 | 273 | 0.0 | 1.6 | 0.00 | 0.00 | 0.00 | 97 | 1009.4 |
| 20260510015326 | 10 | 311 | 0.0 | 1.6 | 0.00 | 0.00 | 0.00 | 97 | 1009.3 |
| 20260510014822 | 10 | 80 | 0.0 | 1.6 | 0.00 | 0.00 | 0.00 | 97 | 1009.2 |
| 20260510014319 | 10 | 80 | 1.6 | 3.2 | 0.00 | 0.00 | 0.00 | 97 | 1009.0 |
| 20260510013815 | 10 | 94 | 0.0 | 3.2 | 0.00 | 0.00 | 0.00 | 97 | 1009.5 |
| 20260510013311 | 10 | 336 | 0.0 | 1.6 | 0.00 | 0.00 | 0.00 | 97 | 1009.4 |
| 20260510012807 | 10 | 40 | 0.0 | 0.0 | 0.00 | 0.00 | 0.00 | 97 | 1009.3 |
| 20260510012307 | 10 | 39 | 0.0 | 1.6 | 0.00 | 0.00 | 0.00 | 97 | 1009.1 |
| 20260510011807 | 10 | 30 | 0.0 | 1.6 | 0.00 | 0.00 | 0.00 | 97 | 1009.1 |
| 20260510011302 | 10 | 30 | 0.0 | 1.6 | 0.00 | 0.00 | 0.00 | 97 | 1009.2 |
| 20260510010759 | 10 | 27 | 0.0 | 1.6 | 0.00 | 0.00 | 0.00 | 97 | 1009.2 |
| 20260510010256 | 10 | 335 | 0.0 | 1.6 | 0.00 | 0.00 | 0.00 | 97 | 1009.3 |
| 20260510005753 | 10 | 334 | 0.0 | 1.6 | 0.00 | 0.00 | 0.00 | 97 | 1009.1 |
| 20260510005249 | 10 | 334 | 0.0 | 1.6 | 0.00 | 0.00 | 0.00 | 97 | 1009.2 |
| 20260510004747 | 10 | 326 | 0.0 | 0.0 | 0.00 | 0.00 | 0.00 | 97 | 1008.9 |
| 20260510004244 | 10 | 326 | 0.0 | 0.0 | 0.00 | 0.00 | 0.00 | 97 | 1008.8 |
| 20260510003742 | 10 | 326 | 0.0 | 0.0 | 0.00 | 0.00 | 0.00 | 97 | 1009.0 |
| 20260510003238 | 10 | 326 | 0.0 | 0.0 | 0.00 | 0.00 | 0.00 | 97 | 1009.2 |
| 20260510002736 | 10 | 326 | 0.0 | 0.0 | 0.00 | 0.00 | 0.00 | 97 | 1009.1 |
| 20260510002235 | 10 | 326 | 0.0 | 0.0 | 0.00 | 0.00 | 0.00 | 97 | 1009.0 |
| 20260510001731 | 10 | 326 | 0.0 | 0.0 | 0.00 | 0.00 | 0.00 | 97 | 1009.0 |
| 20260510001230 | 10 | 326 | 0.0 | 0.0 | 0.00 | 0.00 | 0.00 | 97 | 1009.0 |
| 20260510000725 | 10 | 326 | 0.0 | 1.6 | 0.00 | 0.00 | 0.00 | 97 | 1009.0 |
| 20260510000223 | 10 | 326 | 0.0 | 0.0 | 0.00 | 0.00 | 0.00 | 97 | 1008.8 |
| 20260509235720 | 10 | 326 | 0.0 | 0.0 | 0.00 | 0.00 | 0.00 | 97 | 1008.8 |
| 20260509235216 | 10 | 326 | 0.0 | 0.0 | 0.00 | 0.00 | 0.00 | 97 | 1008.7 |
| 20260509234712 | 10 | 326 | 0.0 | 0.0 | 0.00 | 0.00 | 0.00 | 97 | 1008.6 |
| 20260509234209 | 10 | 326 | 0.0 | 0.0 | 0.00 | 0.00 | 0.00 | 97 | 1008.4 |
| 20260509233708 | 10 | 326 | 0.0 | 0.0 | 0.00 | 0.00 | 0.00 | 97 | 1008.3 |
| 20260509233205 | 10 | 326 | 0.0 | 1.6 | 0.00 | 0.00 | 0.00 | 97 | 1008.5 |
| 20260509232701 | 10 | 325 | 0.0 | 1.6 | 0.00 | 0.00 | 0.00 | 97 | 1008.6 |
| 20260509232157 | 10 | 325 | 0.0 | 1.6 | 0.00 | 0.00 | 0.00 | 96 | 1008.3 |
| 20260509231654 | 11 | 325 | 0.0 | 1.6 | 0.00 | 0.00 | 0.00 | 96 | 1008.3 |
| 20260509231152 | 11 | 325 | 0.0 | 0.0 | 0.00 | 0.00 | 0.00 | 96 | 1008.3 |
| 20260509230649 | 11 | 325 | 0.0 | 1.6 | 0.00 | 0.00 | 0.00 | 96 | 1008.1 |
| 20260509230145 | 11 | 326 | 1.6 | 1.6 | 0.00 | 0.00 | 0.00 | 96 | 1008.2 |
| 20260509225641 | 10 | 325 | 0.0 | 0.0 | 0.00 | 0.00 | 0.00 | 96 | 1008.2 |
| 20260509225137 | 10 | 322 | 0.0 | 0.0 | 0.00 | 0.00 | 0.00 | 97 | 1008.3 |
| 20260509224632 | 10 | 318 | 1.6 | 1.6 | 0.00 | 0.00 | 0.00 | 97 | 1008.3 |
| 20260509224129 | 10 | 308 | 0.0 | 1.6 | 0.00 | 0.00 | 0.00 | 97 | 1008.3 |
| 20260509223626 | 10 | 306 | 0.0 | 0.0 | 0.00 | 0.00 | 0.00 | 97 | 1008.3 |
| 20260509223124 | 10 | 306 | 0.0 | 0.0 | 0.00 | 0.00 | 0.00 | 97 | 1008.3 |
| 20260509222620 | 10 | 298 | 0.0 | 0.0 | 0.00 | 0.00 | 0.00 | 97 | 1008.2 |
| 20260509222116 | 10 | 291 | 0.0 | 1.6 | 0.00 | 0.00 | 0.00 | 97 | 1008.2 |
| 20260509221612 | 10 | 100 | 0.0 | 0.0 | 0.00 | 0.00 | 0.00 | 97 | 1008.1 |
| 20260509221108 | 10 | 100 | 0.0 | 0.0 | 0.00 | 0.00 | 0.00 | 97 | 1008.3 |
| 20260509220604 | 10 | 100 | 0.0 | 1.6 | 0.00 | 0.00 | 0.00 | 97 | 1008.3 |
| 20260509220100 | 10 | 100 | 0.0 | 0.0 | 0.00 | 0.00 | 0.00 | 97 | 1008.5 |
| 20260509215555 | 10 | 100 | 1.6 | 1.6 | 0.00 | 0.00 | 0.00 | 97 | 1008.4 |
| 20260509215054 | 10 | 100 | 0.0 | 1.6 | 0.00 | 0.00 | 0.00 | 97 | 1008.6 |
| 20260509214550 | 10 | 100 | 0.0 | 1.6 | 0.00 | 0.00 | 0.00 | 97 | 1008.6 |
| 20260509214047 | 10 | 100 | 0.0 | 0.0 | 0.00 | 0.00 | 0.00 | 97 | 1008.8 |
| 20260509213543 | 10 | 100 | 0.0 | 0.0 | 0.00 | 0.00 | 0.00 | 97 | 1008.9 |
| 20260509213040 | 10 | 100 | 0.0 | 0.0 | 0.00 | 0.00 | 0.00 | 97 | 1008.8 |
| 20260509212537 | 10 | 100 | 0.0 | 0.0 | 0.00 | 0.00 | 0.00 | 97 | 1008.7 |
| 20260509212034 | 10 | 99 | 0.0 | 1.6 | 0.00 | 0.00 | 0.00 | 97 | 1008.9 |
| 20260509211530 | 10 | 99 | 0.0 | 1.6 | 0.00 | 0.00 | 0.00 | 97 | 1008.7 |
| 20260509211027 | 10 | 84 | 1.6 | 1.6 | 0.00 | 0.00 | 0.00 | 97 | 1009.0 |
| 20260509210524 | 10 | 206 | 0.0 | 0.0 | 0.00 | 0.00 | 0.00 | 97 | 1009.0 |
| 20260509210020 | 9 | 205 | 0.0 | 1.6 | 0.00 | 0.00 | 0.00 | 96 | 1009.1 |
| 20260509205514 | 9 | 310 | 0.0 | 0.0 | 0.00 | 0.00 | 0.00 | 96 | 1009.0 |
| 20260509205010 | 9 | 259 | 1.6 | 1.6 | 0.00 | 0.00 | 0.00 | 96 | 1008.9 |
| 20260509204507 | 9 | 325 | 1.6 | 3.2 | 0.00 | 0.00 | 0.00 | 96 | 1009.2 |
| 20260509204003 | 9 | 300 | 1.6 | 1.6 | 0.00 | 0.00 | 0.00 | 96 | 1009.1 |
| 20260509203459 | 9 | 69 | 0.0 | 1.6 | 0.00 | 0.00 | 0.00 | 96 | 1009.0 |
| 20260509202956 | 9 | 66 | 0.0 | 0.0 | 0.00 | 0.00 | 0.00 | 96 | 1009.2 |
| 20260509202452 | 9 | 44 | 0.0 | 1.6 | 0.00 | 0.00 | 0.00 | 96 | 1009.3 |
| 20260509201947 | 9 | 198 | 0.0 | 1.6 | 0.00 | 0.00 | 0.00 | 96 | 1009.1 |
| 20260509201443 | 9 | 210 | 0.0 | 0.0 | 0.00 | 0.00 | 0.00 | 96 | 1009.3 |
| 20260509200940 | 9 | 105 | 0.0 | 1.6 | 0.00 | 0.00 | 0.00 | 96 | 1009.4 |
| 20260509200440 | 9 | 211 | 3.2 | 4.8 | 0.00 | 0.00 | 0.00 | 96 | 1009.3 |
| 20260509195937 | 9 | 222 | 3.2 | 3.2 | 0.00 | 0.00 | 0.00 | 96 | 1009.5 |
| 20260509195433 | 9 | 284 | 0.0 | 1.6 | 0.00 | 0.00 | 0.00 | 96 | 1009.6 |
| 20260509194932 | 9 | 331 | 0.0 | 1.6 | 0.00 | 0.00 | 0.00 | 96 | 1009.8 |
| 20260509194428 | 9 | 327 | 1.6 | 1.6 | 0.00 | 0.00 | 0.00 | 96 | 1009.8 |
| 20260509193925 | 9 | 293 | 1.6 | 3.2 | 0.00 | 0.00 | 0.00 | 96 | 1010.1 |
| 20260509193425 | 9 | 249 | 1.6 | 1.6 | 0.00 | 0.00 | 0.00 | 96 | 1009.9 |
| 20260509192921 | 8 | 303 | 0.0 | 1.6 | 0.00 | 0.00 | 0.00 | 96 | 1009.9 |
| 20260509192417 | 8 | 297 | 0.0 | 1.6 | 0.00 | 0.00 | 0.00 | 96 | 1009.9 |
| 20260509191913 | 8 | 230 | 1.6 | 4.8 | 0.00 | 0.00 | 0.00 | 96 | 1009.7 |
| 20260509191408 | 8 | 309 | 1.6 | 1.6 | 0.00 | 0.00 | 0.00 | 96 | 1009.9 |
| 20260509190905 | 8 | 228 | 3.2 | 4.8 | 0.00 | 0.00 | 0.00 | 95 | 1009.8 |
| 20260509190402 | 8 | 158 | 1.6 | 6.4 | 0.00 | 0.00 | 0.00 | 95 | 1009.9 |
| 20260509185859 | 8 | 207 | 3.2 | 4.8 | 0.00 | 0.00 | 0.00 | 96 | 1010.0 |
| 20260509185356 | 8 | 351 | 1.6 | 3.2 | 0.00 | 0.00 | 0.00 | 96 | 1009.9 |
| 20260509184853 | 8 | 293 | 0.0 | 1.6 | 0.00 | 0.00 | 0.00 | 96 | 1010.1 |
| 20260509184350 | 8 | 263 | 1.6 | 1.6 | 0.00 | 0.00 | 0.00 | 96 | 1010.0 |
| 20260509183847 | 8 | 167 | 0.0 | 1.6 | 0.00 | 0.00 | 0.00 | 96 | 1010.1 |
| 20260509183342 | 8 | 236 | 1.6 | 1.6 | 0.00 | 0.00 | 0.00 | 96 | 1009.9 |
| 20260509182838 | 8 | 39 | 1.6 | 3.2 | 0.00 | 0.00 | 0.00 | 95 | 1010.1 |
| 20260509182335 | 8 | 276 | 0.0 | 1.6 | 0.00 | 0.00 | 0.00 | 95 | 1010.0 |
| 20260509181832 | 8 | 292 | 1.6 | 1.6 | 0.00 | 0.00 | 0.00 | 95 | 1010.1 |
| 20260509181329 | 8 | 260 | 1.6 | 3.2 | 0.00 | 0.00 | 0.00 | 95 | 1010.1 |
| 20260509180827 | 8 | 312 | 1.6 | 4.8 | 0.00 | 0.00 | 0.00 | 96 | 1010.1 |
| 20260509180323 | 8 | 320 | 0.0 | 0.0 | 0.00 | 0.00 | 0.00 | 95 | 1010.0 |
| 20260509175820 | 8 | 214 | 3.2 | 4.8 | 0.00 | 0.00 | 0.00 | 95 | 1010.3 |
| 20260509175316 | 8 | 262 | 0.0 | 3.2 | 0.00 | 0.00 | 0.00 | 95 | 1010.1 |
| 20260509174812 | 8 | 244 | 0.0 | 3.2 | 0.00 | 0.00 | 0.00 | 96 | 1010.1 |
| 20260509174308 | 8 | 217 | 0.0 | 1.6 | 0.00 | 0.00 | 0.00 | 96 | 1010.1 |
| 20260509173804 | 8 | 175 | 0.0 | 0.0 | 0.00 | 0.00 | 0.00 | 96 | 1010.3 |
| 20260509173259 | 8 | 286 | 0.0 | 1.6 | 0.00 | 0.00 | 0.00 | 96 | 1010.2 |
| 20260509172755 | 8 | 192 | 4.8 | 4.8 | 0.00 | 0.00 | 0.00 | 96 | 1010.2 |
| 20260509172253 | 8 | 1 | 0.0 | 0.0 | 0.00 | 0.00 | 0.00 | 95 | 1010.4 |
| 20260509171748 | 8 | 217 | 1.6 | 1.6 | 0.00 | 0.00 | 0.00 | 95 | 1010.4 |
| 20260509171244 | 8 | 218 | 0.0 | 0.0 | 0.00 | 0.00 | 0.00 | 95 | 1010.4 |
| 20260509170741 | 8 | 217 | 1.6 | 1.6 | 0.00 | 0.00 | 0.00 | 95 | 1010.5 |
| 20260509170237 | 8 | 215 | 1.6 | 3.2 | 0.00 | 0.00 | 0.00 | 95 | 1010.3 |
| 20260509165736 | 8 | 207 | 4.8 | 6.4 | 0.00 | 0.00 | 0.00 | 95 | 1010.6 |
| 20260509165231 | 8 | 234 | 1.6 | 1.6 | 0.00 | 0.00 | 0.00 | 95 | 1010.7 |
| 20260509164727 | 8 | 186 | 6.4 | 6.4 | 0.00 | 0.00 | 0.00 | 95 | 1010.6 |
| 20260509164223 | 8 | 187 | 0.0 | 4.8 | 0.00 | 0.00 | 0.00 | 95 | 1010.7 |
| 20260509163721 | 8 | 193 | 0.0 | 4.8 | 0.00 | 0.00 | 0.00 | 95 | 1011.1 |
| 20260509163217 | 8 | 255 | 0.0 | 1.6 | 0.00 | 0.00 | 0.00 | 95 | 1010.9 |
| 20260509162715 | 8 | 202 | 1.6 | 1.6 | 0.00 | 0.00 | 0.00 | 95 | 1011.0 |
| 20260509162210 | 7 | 293 | 1.6 | 1.6 | 0.00 | 0.00 | 0.00 | 96 | 1010.8 |
| 20260509161706 | 7 | 28 | 1.6 | 1.6 | 0.00 | 0.00 | 0.00 | 96 | 1011.1 |
| 20260509161202 | 7 | 52 | 1.6 | 3.2 | 0.00 | 0.00 | 0.00 | 96 | 1011.1 |
| 20260509160657 | 7 | 340 | 1.6 | 1.6 | 0.00 | 0.00 | 0.00 | 96 | 1011.1 |
| 20260509160153 | 7 | 272 | 0.0 | 0.0 | 0.00 | 0.00 | 0.00 | 96 | 1011.3 |
| 20260509155649 | 7 | 271 | 0.0 | 1.6 | 0.00 | 0.00 | 0.00 | 96 | 1011.5 |
| 20260509155146 | 7 | 311 | 0.0 | 1.6 | 0.00 | 0.00 | 0.00 | 96 | 1011.6 |
| 20260509154641 | 7 | 187 | 1.6 | 1.6 | 0.00 | 0.00 | 0.00 | 96 | 1011.7 |
| 20260509154139 | 7 | 313 | 0.0 | 1.6 | 0.00 | 0.00 | 0.00 | 96 | 1011.9 |
| 20260509153636 | 7 | 267 | 0.0 | 3.2 | 0.00 | 0.00 | 0.00 | 96 | 1011.9 |
| 20260509153132 | 7 | 206 | 1.6 | 3.2 | 0.00 | 0.00 | 0.00 | 96 | 1011.9 |
| 20260509152628 | 7 | 235 | 1.6 | 1.6 | 0.00 | 0.00 | 0.00 | 96 | 1011.5 |
| 20260509152126 | 7 | 210 | 6.4 | 6.4 | 0.00 | 0.00 | 0.00 | 96 | 1011.6 |
| 20260509151622 | 6 | 356 | 0.0 | 0.0 | 0.00 | 0.00 | 0.00 | 96 | 1011.7 |
| 20260509151120 | 7 | 357 | 0.0 | 0.0 | 0.00 | 0.00 | 0.00 | 96 | 1011.9 |
| 20260509150617 | 6 | 358 | 0.0 | 3.2 | 0.00 | 0.00 | 0.00 | 96 | 1012.1 |
| 20260509150115 | 6 | 354 | 0.0 | 0.0 | 0.00 | 0.00 | 0.00 | 96 | 1012.0 |
| 20260509145611 | 6 | 354 | 1.6 | 1.6 | 0.00 | 0.00 | 0.00 | 96 | 1012.0 |
| 20260509145106 | 6 | 354 | 0.0 | 1.6 | 0.00 | 0.00 | 0.00 | 96 | 1012.0 |
| 20260509144604 | 6 | 354 | 1.6 | 1.6 | 0.00 | 0.00 | 0.00 | 96 | 1012.1 |
| 20260509144100 | 6 | 354 | 0.0 | 1.6 | 0.00 | 0.00 | 0.00 | 96 | 1011.7 |
| 20260509143557 | 6 | 354 | 0.0 | 0.0 | 0.00 | 0.00 | 0.00 | 96 | 1011.9 |